This demonstration page uses our WeatherBlox Daily Observations layout. Learn more.

Left ArrowRight Arrow

38.88101, -77.10428

Hourly Observations for June 26, 2021

Temp ( °F °C ) Dew Point ( °F °C ) Humidity (%) Winds ( mph kmh ) Pressure ( in mb ) Visibility ( mi km ) Precip ( " mm )
12:50 am 00:50 Cloudy 73 23 68 20 83 83 S 13 20 30.22 1023 10 16 N/A
12:52 am 00:52 Cloudy 74 23.3 68 20 82 82 SSE 10 17 30.22 1023 10 16 N/A
1:52 am 01:52 Mostly Cloudy 74 23.3 69 20.6 85 85 S 15 24 30.21 1023 10 16 N/A
2:09 am 02:09 Mostly Cloudy 74 23.3 69 20.6 85 85 S 14 22 30.21 1023 10 16 N/A
2:52 am 02:52 Mostly Cloudy 73 22.8 69 20.6 87 87 SSE 13 20 30.20 1023 10 16 N/A
2:59 am 02:59 Mostly Cloudy 73 22.8 69 20.6 87 87 S 12 19 30.21 1023 10 16 N/A
3:52 am 03:52 Mostly Cloudy 73 22.8 69 20.6 87 87 SSE 9 15 30.20 1023 10 16 N/A
4:39 am 04:39 Cloudy 73 22.8 69 20.6 87 87 SSW 7 11 30.22 1023 10 16 N/A
4:52 am 04:52 Cloudy 73 22.8 69 20.6 87 87 S 8 13 30.22 1023 10 16 N/A
5:13 am 05:13 Cloudy 73 22.8 69 20.6 87 87 SSW 9 15 30.22 1023 10 16 N/A
5:35 am 05:35 Cloudy 73 22.8 69 20.6 87 87 S 9 15 30.22 1023 10 16 N/A
5:50 am 05:50 Cloudy 73 23 70 21 89 89 SSW 7 11 30.22 1023 10 16 N/A
5:52 am 05:52 Cloudy 73 22.8 69 20.6 87 87 SSW 7 11 30.22 1023 10 16 N/A
6:52 am 06:52 Cloudy with Light Rain 73 22.8 70 21.1 90 90 SSW 8 13 30.23 1024 4 6 0.01 0.25
6:57 am 06:57 Cloudy with Heavy Rain 73 22.8 70 21.1 90 90 SSW 7 11 30.23 1024 2 3 0.01 0.25
7:00 am 07:00 Cloudy with Heavy Rain 73 22.8 70 21.1 90 90 SSW 5 7 30.23 1024 2 2 0.04 1.02
7:09 am 07:09 Cloudy with Light Rain 73 22.8 70 21.1 90 90 SSW 9 15 30.23 1024 3 4 0.08 2.03
7:16 am 07:16 Cloudy with Rain 73 22.8 70 21.1 90 90 S 6 9 30.23 1024 2 3 0.10 2.54
7:21 am 07:21 Cloudy with Light Rain 73 22.8 70 21.1 90 90 S 7 11 30.23 1024 2 3 0.12 3.05
7:23 am 07:23 Cloudy with Light Rain 73 22.8 70 21.1 90 90 S 8 13 30.23 1024 2 3 0.12 3.05
7:26 am 07:26 Cloudy with Light Rain 73 22.8 70 21.1 90 90 S 7 11 30.23 1024 3 4 0.12 3.05
7:30 am 07:30 Cloudy with Light Rain 73 22.8 71 21.7 94 94 S 8 13 30.23 1024 3 5 0.13 3.30
7:47 am 07:47 Cloudy 73 23 72 22 94 94 S 6 9 30.23 1024 9 14 0.13 3.30
7:52 am 07:52 Cloudy 74 23.3 71 21.7 91 91 S 6 9 30.23 1024 10 16 0.13 3.30
7:58 am 07:58 Cloudy 74 23.3 71 21.7 91 91 S 9 15 30.23 1024 10 16 N/A
8:00 am 08:00 Cloudy 74 23.3 70 21.1 88 88 S 10 17 30.23 1024 10 16 N/A
8:52 am 08:52 Cloudy 75 23.9 70 21.1 84 84 S 10 17 30.24 1024 10 16 N/A
9:06 am 09:06 Cloudy 76 24.4 70 21.1 82 82 SSW 9 15 30.23 1024 10 16 N/A
9:25 am 09:25 Cloudy 77 25 71 21.7 82 82 S 7 11 30.23 1024 10 16 N/A
9:34 am 09:34 Cloudy 77 25 70 21.1 79 79 SW 6 9 30.23 1024 10 16 N/A
9:52 am 09:52 Cloudy with Light Rain 77 25 70 21.1 79 79 WSW 8 13 30.23 1024 10 16 0.00 0.00
10:16 am 10:16 Cloudy with Light Rain 78 25.6 71 21.7 79 79 SSW 7 11 30.23 1024 10 16 0.00 0.00
10:52 am 10:52 Cloudy 80 26.7 70 21.1 71 71 S 10 17 30.22 1024 10 16 0.00 0.00
10:57 am 10:57 Cloudy 80 26.7 69 20.6 69 69 SSW 13 20 30.23 1024 10 16 N/A
11:08 am 11:08 Cloudy 79 26.1 69 20.6 72 72 SW 12 19 30.23 1024 10 16 N/A
11:10 am 11:10 Cloudy 79 26.1 69 20.6 72 72 SW 10 17 30.23 1024 10 16 N/A
11:52 am 11:52 Mostly Cloudy 82 27.8 70 21.1 67 67 SSW 13 20 30.22 1023 10 16 N/A
12:02 pm 12:02 Mostly Cloudy 81 27.2 70 21.1 69 69 SW 10 17 30.22 1023 10 16 N/A
12:14 pm 12:14 Mostly Cloudy 82 27.8 70 21.1 67 67 SSW 12 19 30.22 1023 10 16 N/A
12:20 pm 12:20 Mostly Cloudy 82 27.8 70 21.1 67 67 S 10 17 30.22 1023 10 16 N/A
12:31 pm 12:31 Mostly Cloudy 82 27.8 70 21.1 67 67 SW 10 17 30.21 1023 10 16 N/A
12:52 pm 12:52 Mostly Cloudy 81 27.2 70 21.1 69 69 S 13 20 30.20 1023 10 16 N/A
1:11 pm 13:11 Mostly Cloudy 81 27.2 70 21.1 69 69 S 15 24 30.20 1023 10 16 N/A
1:16 pm 13:16 Mostly Cloudy 83 28.3 70 21.1 65 65 S 13 20 30.20 1023 10 16 N/A
1:52 pm 13:52 Mostly Cloudy 83 28.3 71 21.7 67 67 S 13 20 30.18 1022 10 16 N/A
2:52 pm 14:52 Mostly Cloudy 84 28.9 70 21.1 63 63 SSE 10 17 30.18 1022 10 16 N/A
3:52 pm 15:52 Mostly Cloudy 84 28.9 70 21.1 63 63 S 13 20 30.17 1022 10 16 N/A
5:52 pm 17:52 Mostly Cloudy 85 29.4 69 20.6 59 59 S 14 22 30.16 1021 10 16 N/A
6:52 pm 18:52 Mostly Cloudy 84 28.9 71 21.7 65 65 S 13 20 30.14 1021 10 16 N/A
7:52 pm 19:52 Mostly Cloudy 83 28.3 72 22.2 70 70 S 10 17 30.15 1021 10 16 N/A
8:52 pm 20:52 Mostly Cloudy 81 27.2 72 22.2 74 74 S 12 19 30.15 1021 10 16 N/A
9:52 pm 21:52 Mostly Cloudy 80 26.7 72 22.2 76 76 S 9 15 30.16 1021 10 16 N/A
10:52 pm 22:52 Mostly Cloudy 79 26.1 71 21.7 77 77 S 12 19 30.17 1022 10 16 N/A
11:52 pm 23:52 Mostly Cloudy 78 25.6 70 21.1 76 76 S 16 26 30.17 1022 10 16 N/A

Powered by AerisWeather